Mount Carmel, IL

3:40 AM CST on December 07, 2019 (GMT -0600)
Mount Carmel Municipal

Weather History for KAJG - October, 2019

Change the Weather History Date:

Wednesday, October 30, 2019

  Actual Average (KLWV) Record (KLWV)
Temperature  
Mean Temperature 48 °F 53 °F  
Max Temperature 51 °F 64 °F 79 °F (2004)
Min Temperature 45 °F 42 °F 30 °F (2005)
Degree Days  
Heating Degree Days 17 12  
Month to date heating degree days 245  
Since 1 July heating degree days 284  
Cooling Degree Days 0 0  
Month to date cooling degree days 31  
Year to date cooling degree days 1385  
Moisture  
Dew Point 47 °F    
Average Humidity 94    
Maximum Humidity 97    
Minimum Humidity 89    
Precipitation  
Precipitation 0.09 in 0.07 in 0.54 in (2013)
Month to date precipitation 3.91  
Year to date precipitation 36.45  
Sea Level Pressure  
Sea Level Pressure 30.01 in    
Wind  
Wind Speed 8 mph (NNE)    
Max Wind Speed 12 mph    
Max Gust Speed -    
Visibility 4 miles    
Events Rain    
T = Trace of Precipitation, MM = Missing Value Source: NWS Daily Summary

Daily Weather History Graph

Daily Weather History Graph

Search for Another Location

Airport or City:

Astronomy

Oct. 30, 2019 Rise Set
Actual Time 7:15 AM CDT 5:53 PM CDT
Civil Twilight 6:47 AM CDT 6:20 PM CDT
Nautical Twilight 6:16 AM CDT 6:51 PM CDT
Astronomical Twilight 5:45 AM CDT 7:22 PM CDT
Moon 9:56 AM CDT (10/30) 8:02 PM CDT (10/30)
Length of Visible Light 11h 32m
Length of Day
10h 38m
Waxing Crescent, 9% of the Moon is Illuminated
Oct 30
Waxing Crescent
Nov 4
First Quarter
Nov 12
Full
Nov 19
Last Quarter
Nov 26
New

Hourly Weather History & Observations

Time (CDT) Temp. Windchill Dew Point Humidity Pressure Visibility Wind Dir Wind Speed Gust Speed Precip Events Conditions
12:15 AM 45.5 °F 41.3 °F 42.8 °F 90% 30.18 in 7.0 mi NNE 8.1 mph - N/A   Overcast
12:35 AM 45.5 °F 40.8 °F 42.8 °F 90% 30.19 in 7.0 mi North 9.2 mph - N/A   Overcast
12:55 AM 45.1 °F 40.8 °F 42.8 °F 91% 30.19 in 7.0 mi North 8.1 mph - N/A   Overcast
1:15 AM 45.0 °F 39.7 °F 42.6 °F 91% 30.17 in 7.0 mi NNE 10.4 mph - N/A   Overcast
1:35 AM 45.5 °F 41.8 °F 42.6 °F 90% 30.19 in 7.0 mi North 6.9 mph - N/A   Overcast
1:55 AM 45.5 °F - 42.8 °F 90% 30.18 in 7.0 mi North - - N/A   Overcast
2:15 AM 45.5 °F 41.3 °F 42.8 °F 90% 30.17 in 7.0 mi NNE 8.1 mph - N/A   Overcast
2:35 AM 45.5 °F 40.3 °F 42.8 °F 90% 30.17 in 7.0 mi North 10.4 mph - N/A Rain Light Rain
3:15 AM 45.5 °F 40.8 °F 42.8 °F 90% 30.15 in 7.0 mi NNE 9.2 mph - N/A   Overcast
3:35 AM 45.5 °F 39.9 °F 42.8 °F 90% 30.14 in 5.0 mi NE 11.5 mph - N/A   Overcast
3:55 AM 45.9 °F 40.4 °F 43.2 °F 90% 30.12 in 5.0 mi NE 11.5 mph - N/A   Overcast
4:15 AM 45.9 °F 41.7 °F 43.2 °F 90% 30.13 in 5.0 mi NE 8.1 mph - N/A   Overcast
4:35 AM 46.2 °F 42.2 °F 43.3 °F 90% 30.11 in 5.0 mi NE 8.1 mph - N/A   Overcast
4:55 AM 46.4 °F 41.9 °F 43.7 °F 90% 30.11 in 5.0 mi ENE 9.2 mph - N/A   Overcast
5:15 AM 46.6 °F - 43.7 °F 90% 30.12 in 7.0 mi NNE 8.1 mph - N/A   Overcast
5:35 AM 46.8 °F - 43.7 °F 89% 30.11 in 7.0 mi NE 9.2 mph - N/A   Overcast
5:55 AM 46.9 °F - 43.9 °F 89% 30.11 in 7.0 mi NE 9.2 mph - N/A   Overcast
6:15 AM 46.8 °F - 44.6 °F 92% 30.09 in 5.0 mi NE 10.4 mph - N/A Rain Light Rain
6:35 AM 47.3 °F - 45.0 °F 92% 30.10 in 5.0 mi NE 8.1 mph - 0.01 in Rain Light Rain
6:55 AM 47.1 °F - 45.3 °F 93% 30.08 in 5.0 mi NE 10.4 mph - 0.03 in Rain Rain
7:35 AM 47.5 °F - 45.9 °F 94% 30.06 in 4.0 mi ENE 10.4 mph - 0.01 in Rain Rain
7:55 AM 47.7 °F - 46.0 °F 94% 30.07 in 5.0 mi NE 6.9 mph - 0.01 in Rain Rain
8:15 AM 47.8 °F - 46.4 °F 95% 30.07 in 3.0 mi NE 6.9 mph - 0.01 in   Light Drizzle
8:35 AM 48.0 °F - 46.4 °F 94% 30.07 in 3.0 mi NNE 5.8 mph - 0.01 in   Light Drizzle
8:55 AM 48.2 °F - 46.6 °F 94% 30.07 in 3.0 mi NNE 6.9 mph - 0.01 in   Light Drizzle
9:15 AM 48.4 °F - 46.9 °F 95% 30.07 in 3.0 mi North 8.1 mph - N/A   Overcast
9:35 AM 48.7 °F - 47.3 °F 95% 30.06 in 3.0 mi North 9.2 mph - N/A   Overcast
9:55 AM 49.1 °F - 47.5 °F 94% 30.04 in 3.0 mi NE 9.2 mph - N/A   Overcast
10:15 AM 49.1 °F - 47.5 °F 94% 30.04 in 3.0 mi North 5.8 mph - N/A   Overcast
10:35 AM 48.9 °F - 47.3 °F 94% 30.04 in 3.0 mi NNE 6.9 mph - N/A   Overcast
10:55 AM 49.1 °F - 47.5 °F 94% 30.04 in 3.0 mi North - - N/A   Overcast
11:15 AM 49.1 °F - 47.7 °F 95% 30.04 in 2.5 mi North - - N/A Rain Light Rain
11:35 AM 49.1 °F - 47.7 °F 95% 30.03 in 2.5 mi NNE 6.9 mph - 0.02 in Rain Light Rain
11:55 AM 49.1 °F - 47.7 °F 95% 30.03 in 3.0 mi North 8.1 mph - 0.02 in Rain Light Rain
12:15 PM 49.3 °F - 47.8 °F 95% 30.04 in 3.0 mi North 6.9 mph - N/A   Light Drizzle
12:35 PM 49.1 °F - 47.7 °F 95% 30.00 in 3.0 mi North 11.5 mph - N/A   Light Drizzle
12:55 PM 49.3 °F - 48.0 °F 95% 29.97 in 2.5 mi NNE 8.1 mph - 0.01 in Rain Light Rain
1:15 PM 49.3 °F - 48.0 °F 95% 29.97 in 3.0 mi NNE 5.8 mph - N/A Rain Light Rain
1:35 PM 49.3 °F - 48.2 °F 96% 29.95 in 3.0 mi NE 6.9 mph - 0.01 in Rain Light Rain
1:55 PM 50.0 °F - 48.7 °F 95% 29.94 in 4.0 mi ENE 8.1 mph - 0.01 in Rain Light Rain
2:15 PM 50.0 °F - 48.6 °F 95% 29.92 in 4.0 mi NE 9.2 mph - N/A   Overcast
2:35 PM 50.4 °F - 48.9 °F 95% 29.93 in 4.0 mi North - - N/A   Overcast
2:55 PM 50.9 °F - 49.3 °F 94% 29.93 in 4.0 mi North - - N/A   Overcast
3:15 PM 51.8 °F - 49.8 °F 93% 29.93 in 5.0 mi North 4.6 mph - N/A   Overcast
3:35 PM 51.6 °F - 49.6 °F 93% 29.93 in 5.0 mi North - - N/A   Overcast
3:55 PM 51.8 °F - 49.8 °F 93% 29.93 in 5.0 mi North - - N/A   Overcast
4:15 PM 51.3 °F - 49.5 °F 94% 29.93 in 5.0 mi North - - N/A   Overcast
4:35 PM 51.3 °F - 49.5 °F 94% 29.92 in 4.0 mi North - - N/A   Overcast
4:55 PM 51.3 °F - 49.5 °F 94% 29.93 in 4.0 mi North - - N/A   Overcast
5:15 PM 51.3 °F - 49.6 °F 94% 29.93 in 3.0 mi North - - N/A   Overcast
5:55 PM 50.9 °F - 49.5 °F 95% 29.93 in 4.0 mi WNW 6.9 mph - N/A   Overcast
6:15 PM 50.7 °F - 49.5 °F 95% 29.93 in 3.0 mi North - - N/A Rain Light Rain
6:35 PM 50.2 °F - 49.1 °F 96% 29.93 in 2.5 mi NW 8.1 mph - N/A   Overcast
6:55 PM 49.6 °F - 48.7 °F 97% 29.94 in 1.0 mi WNW 9.2 mph - N/A   Overcast
7:15 PM 49.3 °F - 48.4 °F 97% 29.93 in 1.0 mi North - - N/A Rain Light Rain
7:35 PM 49.3 °F - 48.4 °F 97% 29.93 in 1.0 mi NW 8.1 mph - N/A   Overcast
7:55 PM 49.1 °F - 48.2 °F 97% 29.93 in 1.2 mi WNW 8.1 mph - N/A Rain Rain
8:15 PM 48.7 °F - 47.8 °F 97% 29.91 in 1.2 mi NW 8.1 mph - N/A   Overcast
8:35 PM 48.4 °F - 47.7 °F 97% 29.91 in 1.8 mi NNW 6.9 mph - N/A   Overcast
8:55 PM 48.2 °F - 47.3 °F 97% 29.93 in 1.8 mi NW 10.4 mph - N/A   Overcast
9:15 PM 48.0 °F - 47.3 °F 97% 29.92 in 1.5 mi NNW 8.1 mph - N/A   Overcast
9:35 PM 47.7 °F - 46.9 °F 97% 29.91 in 1.2 mi NNW 6.9 mph - N/A   Overcast
9:55 PM 47.7 °F - 46.9 °F 97% 29.90 in 1.2 mi North 4.6 mph - N/A   Overcast
10:15 PM 47.7 °F - 46.9 °F 97% 29.89 in 1.2 mi North - - N/A   Overcast
10:35 PM 47.7 °F - 46.9 °F 97% 29.88 in 1.8 mi North - - N/A   Overcast
10:55 PM 47.5 °F - 46.8 °F 97% 29.87 in 5.0 mi North - - N/A   Overcast
11:15 PM 47.5 °F - 46.8 °F 97% 29.87 in 2.0 mi North - - N/A   Overcast
11:35 PM 47.5 °F - 46.8 °F 97% 29.86 in 1.5 mi Calm Calm - N/A   Overcast
11:55 PM 47.5 °F - 46.8 °F 97% 29.85 in 1.0 mi North - - N/A   Overcast